Orbital Elements at Epoch 2459200.5 (2020-Dec-17.0) TDB
Reference: JPL 15 (heliocentric ecliptic J2000)
Element | Value | Uncertainty (1-sigma) | Units |
e | .1008999721801623 | 3.5691e-08 | |
a | 2.378246090091803 | 1.4108e-08 | au |
q | 2.138281125763961 | 8.7595e-08 | au |
i | 5.273331611885344 | 4.466e-06 | deg |
node | 129.6062797090381 | 4.8954e-05 | deg |
peri | 330.1292425089245 | 5.6416e-05 | deg |
M | 235.5520914751543 | 2.7599e-05 | deg |
tp | 2459663.593532225297 (2022-Mar-25.09353223) | 0.00010413 | TDB |
period | 1339.626142192843 3.67 | 1.1921e-05 3.264e-08 | d yr |
n | .268731692120246 | 2.3913e-09 | deg/d |
Q | 2.618211054419646 | 1.5532e-08 | au |
|
| | Orbit Determination Parameters
Additional Information
|